TimeCDT,TemperatureF,Dew PointF,Humidity,Sea Level PressureIn,VisibilityMPH,Wind Direction,Wind SpeedMPH,Gust SpeedMPH,PrecipitationIn,Events,Conditions,WindDirDegrees,DateUTC
12:15 AM,42.8,28.4,57,30.10,10.0,South,10.4,-,N/A,,Clear,170,2014-03-30 05:15:00
12:35 AM,42.8,28.4,57,30.09,10.0,South,13.8,-,N/A,,Clear,180,2014-03-30 05:35:00
1:15 AM,41.0,30.2,65,30.08,10.0,South,10.4,-,N/A,,Clear,180,2014-03-30 06:15:00
1:35 AM,41.0,30.2,65,30.07,10.0,South,12.7,-,N/A,,Clear,180,2014-03-30 06:35:00
1:55 AM,41.0,30.2,65,30.07,10.0,South,10.4,-,N/A,,Clear,180,2014-03-30 06:55:00
2:15 AM,41.0,30.2,65,30.06,10.0,South,11.5,-,N/A,,Clear,170,2014-03-30 07:15:00
2:35 AM,41.0,30.2,65,30.05,10.0,South,10.4,-,N/A,,Clear,180,2014-03-30 07:35:00
2:55 AM,41.0,30.2,65,30.05,10.0,South,10.4,-,N/A,,Clear,190,2014-03-30 07:55:00
3:15 AM,41.0,30.2,65,30.04,10.0,South,11.5,-,N/A,,Clear,180,2014-03-30 08:15:00
3:35 AM,42.8,30.2,61,30.03,10.0,South,16.1,-,N/A,,Clear,190,2014-03-30 08:35:00
3:55 AM,42.8,30.2,61,30.02,10.0,South,16.1,-,N/A,,Clear,180,2014-03-30 08:55:00
4:15 AM,42.8,30.2,61,30.02,10.0,South,17.3,25.3,N/A,,Clear,180,2014-03-30 09:15:00
4:35 AM,42.8,30.2,61,30.01,10.0,South,16.1,-,N/A,,Clear,190,2014-03-30 09:35:00
4:55 AM,42.8,30.2,61,30.01,10.0,South,12.7,21.9,N/A,,Clear,180,2014-03-30 09:55:00
5:15 AM,41.0,32.0,70,30.01,10.0,South,16.1,-,N/A,,Clear,180,2014-03-30 10:15:00
5:35 AM,41.0,32.0,70,30.00,10.0,South,13.8,20.7,N/A,,Clear,180,2014-03-30 10:35:00
5:55 AM,41.0,32.0,70,29.99,10.0,South,13.8,19.6,N/A,,Clear,180,2014-03-30 10:55:00
6:15 AM,41.0,32.0,70,29.99,10.0,South,13.8,-,N/A,,Clear,170,2014-03-30 11:15:00
6:35 AM,41.0,32.0,70,29.99,10.0,South,13.8,-,N/A,,Clear,180,2014-03-30 11:35:00
6:55 AM,41.0,32.0,70,29.99,10.0,South,13.8,-,N/A,,Clear,180,2014-03-30 11:55:00
7:15 AM,41.0,32.0,70,29.99,8.0,South,12.7,-,N/A,,Clear,180,2014-03-30 12:15:00
7:35 AM,42.8,32.0,66,29.99,7.0,South,11.5,-,N/A,,Clear,180,2014-03-30 12:35:00
7:55 AM,42.8,32.0,66,29.99,8.0,South,11.5,-,N/A,,Clear,190,2014-03-30 12:55:00
8:15 AM,44.6,33.8,66,29.99,8.0,South,16.1,-,N/A,,Clear,180,2014-03-30 13:15:00
8:35 AM,46.4,33.8,62,29.99,9.0,South,16.1,24.2,N/A,,Clear,180,2014-03-30 13:35:00
8:55 AM,48.2,33.8,58,29.98,9.0,South,17.3,25.3,N/A,,Clear,180,2014-03-30 13:55:00
9:15 AM,50.0,33.8,54,29.98,10.0,South,20.7,27.6,N/A,,Clear,190,2014-03-30 14:15:00
9:35 AM,51.8,33.8,50,29.97,10.0,South,23.0,29.9,N/A,,Clear,190,2014-03-30 14:35:00
9:55 AM,53.6,33.8,47,29.97,10.0,South,21.9,29.9,N/A,,Clear,190,2014-03-30 14:55:00
10:15 AM,53.6,33.8,47,29.97,10.0,SSW,23.0,29.9,N/A,,Clear,200,2014-03-30 15:15:00
10:35 AM,53.6,33.8,47,29.96,10.0,SSW,26.5,33.4,N/A,,Clear,200,2014-03-30 15:35:00
10:55 AM,55.4,35.6,47,29.95,10.0,South,23.0,29.9,N/A,,Clear,190,2014-03-30 15:55:00
11:15 AM,59.0,35.6,42,29.94,10.0,South,21.9,-,N/A,,Clear,190,2014-03-30 16:15:00
11:35 AM,60.8,33.8,36,29.92,10.0,South,27.6,38.0,N/A,,Clear,190,2014-03-30 16:35:00
11:55 AM,62.6,33.8,34,29.91,10.0,SSW,29.9,36.8,N/A,,Clear,200,2014-03-30 16:55:00
12:15 PM,62.6,33.8,34,29.91,10.0,South,23.0,35.7,N/A,,Clear,190,2014-03-30 17:15:00
12:35 PM,62.6,33.8,34,29.90,10.0,South,21.9,33.4,N/A,,Clear,190,2014-03-30 17:35:00
12:55 PM,64.4,33.8,32,29.89,10.0,South,19.6,31.1,N/A,,Clear,180,2014-03-30 17:55:00
1:15 PM,64.4,33.8,32,29.88,10.0,South,24.2,31.1,N/A,,Clear,180,2014-03-30 18:15:00
1:35 PM,68.0,33.8,28,29.87,10.0,South,23.0,33.4,N/A,,Clear,190,2014-03-30 18:35:00
1:55 PM,68.0,33.8,28,29.85,10.0,South,23.0,35.7,N/A,,Clear,190,2014-03-30 18:55:00
2:15 PM,69.8,33.8,27,29.83,10.0,South,26.5,34.5,N/A,,Clear,190,2014-03-30 19:15:00
2:35 PM,69.8,33.8,27,29.81,10.0,SSW,23.0,32.2,N/A,,Clear,200,2014-03-30 19:35:00
2:55 PM,71.6,33.8,25,29.80,10.0,South,31.1,39.1,N/A,,Clear,190,2014-03-30 19:55:00
3:15 PM,71.6,33.8,25,29.79,10.0,SSW,27.6,34.5,N/A,,Clear,200,2014-03-30 20:15:00
3:35 PM,73.4,33.8,23,29.77,10.0,South,29.9,38.0,N/A,,Clear,190,2014-03-30 20:35:00
3:55 PM,73.4,33.8,23,29.76,10.0,South,29.9,40.3,N/A,,Clear,180,2014-03-30 20:55:00
4:15 PM,73.4,33.8,23,29.76,10.0,South,25.3,34.5,N/A,,Clear,190,2014-03-30 21:15:00
4:35 PM,73.4,33.8,23,29.75,10.0,South,26.5,34.5,N/A,,Clear,190,2014-03-30 21:35:00
4:55 PM,73.4,35.6,25,29.74,10.0,South,28.8,35.7,N/A,,Clear,190,2014-03-30 21:55:00
5:15 PM,73.4,35.6,25,29.74,10.0,South,19.6,38.0,N/A,,Clear,190,2014-03-30 22:15:00
5:35 PM,73.4,35.6,25,29.74,10.0,SSW,21.9,32.2,N/A,,Clear,200,2014-03-30 22:35:00
5:55 PM,73.4,35.6,25,29.73,10.0,South,21.9,-,N/A,,Clear,190,2014-03-30 22:55:00
6:15 PM,71.6,35.6,27,29.73,10.0,SSW,24.2,32.2,N/A,,Clear,200,2014-03-30 23:15:00
6:35 PM,71.6,35.6,27,29.73,10.0,South,19.6,33.4,N/A,,Clear,190,2014-03-30 23:35:00
6:55 PM,69.8,35.6,28,29.74,10.0,South,15.0,24.2,N/A,,Clear,190,2014-03-30 23:55:00
7:15 PM,68.0,35.6,30,29.74,10.0,SSW,13.8,24.2,N/A,,Clear,200,2014-03-31 00:15:00
7:35 PM,66.2,35.6,32,29.74,10.0,South,13.8,19.6,N/A,,Clear,190,2014-03-31 00:35:00
7:55 PM,66.2,35.6,32,29.75,10.0,South,12.7,21.9,N/A,,Clear,180,2014-03-31 00:55:00
8:15 PM,64.4,35.6,34,29.74,10.0,South,13.8,21.9,N/A,,Clear,180,2014-03-31 01:15:00
8:35 PM,64.4,35.6,34,29.75,10.0,South,13.8,21.9,N/A,,Clear,180,2014-03-31 01:35:00
8:55 PM,62.6,35.6,37,29.75,10.0,South,15.0,21.9,N/A,,Clear,180,2014-03-31 01:55:00
9:15 PM,62.6,35.6,37,29.75,10.0,South,15.0,-,N/A,,Clear,170,2014-03-31 02:15:00
9:35 PM,62.6,35.6,37,29.75,10.0,South,15.0,-,N/A,,Clear,170,2014-03-31 02:35:00
9:55 PM,62.6,35.6,37,29.75,10.0,South,15.0,-,N/A,,Clear,180,2014-03-31 02:55:00
10:15 PM,62.6,35.6,37,29.75,10.0,South,16.1,23.0,N/A,,Clear,170,2014-03-31 03:15:00
10:35 PM,62.6,35.6,37,29.74,10.0,South,17.3,-,N/A,,Clear,170,2014-03-31 03:35:00
10:55 PM,60.8,35.6,39,29.74,10.0,SSE,11.5,-,N/A,,Clear,160,2014-03-31 03:55:00
11:15 PM,60.8,35.6,39,29.73,10.0,South,13.8,20.7,N/A,,Clear,170,2014-03-31 04:15:00
11:35 PM,60.8,35.6,39,29.72,10.0,South,16.1,-,N/A,,Clear,170,2014-03-31 04:35:00
11:55 PM,60.8,35.6,39,29.71,10.0,South,17.3,24.2,N/A,,Clear,170,2014-03-31 04:55:00